Farmingdale, NY

11:15 PM EDT on April 26, 2018 (GMT -0400)
Republic

Weather History for KFRG - March, 2013

Change the Weather History Date:

Saturday, March 16, 2013

  Actual Average Record
Temperature  
Mean Temperature 36 °F -  
Max Temperature 39 °F 44 °F 64 °F (2002)
Min Temperature 32 °F 30 °F 25 °F (2017)
Degree Days  
Heating Degree Days 30    
Moisture  
Dew Point 27 °F    
Average Humidity 77    
Maximum Humidity 93    
Minimum Humidity 47    
Precipitation  
Precipitation 0.03 in - - ()
Sea Level Pressure  
Sea Level Pressure 29.82 in    
Wind  
Wind Speed 5 mph (NE)    
Max Wind Speed 9 mph    
Max Gust Speed -    
Visibility 6 miles    
Events Snow    
Averages and records for this station are not official NWS values.
T = Trace of Precipitation, MM = Missing Value Source: NWS Daily Summary

Daily Weather History Graph

Daily Weather History Graph

Search for Another Location

Airport or City:

Astronomy

Mar. 16, 2013 Rise Set
Actual Time 7:03 AM EDT 7:01 PM EDT
Civil Twilight 6:36 AM EDT 7:29 PM EDT
Nautical Twilight 6:04 AM EDT 8:00 PM EDT
Astronomical Twilight 5:31 AM EDT 8:33 PM EDT
Moon 9:29 AM EDT (3/16) No Moon Set
Length of Visible Light 12h 53m
Length of Day
11h 58m
Waxing Crescent, 23% of the Moon is Illuminated
Mar 16
Waxing Crescent
Mar 19
First Quarter
Mar 27
Full
Apr 3
Last Quarter
Apr 10
New

Hourly Weather History & Observations

Time (EDT) Temp. Windchill Dew Point Humidity Pressure Visibility Wind Dir Wind Speed Gust Speed Precip Events Conditions
12:53 AM 39.9 °F 33.9 °F 25.0 °F 55% 29.78 in 10.0 mi NW 9.2 mph - N/A   Clear
1:53 AM 39.0 °F 32.8 °F 21.9 °F 50% 29.79 in 10.0 mi NNW 9.2 mph - N/A   Clear
2:53 AM 37.0 °F 34.5 °F 21.9 °F 54% 29.80 in 10.0 mi NW 3.5 mph - N/A   Clear
3:53 AM 36.0 °F 33.3 °F 21.0 °F 55% 29.81 in 10.0 mi West 3.5 mph - N/A   Clear
4:53 AM 36.0 °F 30.3 °F 19.9 °F 52% 29.81 in 10.0 mi NNW 6.9 mph - N/A   Clear
5:53 AM 36.0 °F 32.1 °F 19.0 °F 50% 29.84 in 10.0 mi NNW 4.6 mph - N/A   Clear
6:53 AM 35.1 °F 32.2 °F 19.0 °F 52% 29.85 in 10.0 mi NNW 3.5 mph - N/A   Clear
7:53 AM 34.0 °F 29.8 °F 19.9 °F 56% 29.85 in 10.0 mi NE 4.6 mph - N/A   Scattered Clouds
8:53 AM 35.1 °F 27.9 °F 21.0 °F 57% 29.88 in 10.0 mi NNE 9.2 mph - N/A   Overcast
9:53 AM 36.0 °F 30.3 °F 21.0 °F 55% 29.86 in 10.0 mi ENE 6.9 mph - N/A   Overcast
10:53 AM 37.0 °F 31.0 °F 19.0 °F 48% 29.86 in 10.0 mi North 8.1 mph - N/A   Overcast
11:53 AM 37.9 °F - 19.0 °F 47% 29.85 in 10.0 mi Calm Calm - N/A   Overcast
12:53 PM 37.9 °F 33.5 °F 19.9 °F 48% 29.83 in 10.0 mi SE 5.8 mph - N/A   Mostly Cloudy
1:53 PM 36.0 °F 29.0 °F 24.1 °F 62% 29.83 in 10.0 mi South 9.2 mph - N/A   Overcast
2:04 PM 35.6 °F 29.9 °F 24.8 °F 65% 29.82 in 3.0 mi South 6.9 mph - N/A   Overcast
2:10 PM 35.6 °F 29.9 °F 24.8 °F 65% 29.82 in 2.0 mi South 6.9 mph - 0.00 in Snow Light Snow
2:29 PM 33.8 °F 27.0 °F 28.4 °F 81% 29.83 in 0.8 mi South 8.1 mph - 0.00 in Snow Light Snow
2:30 PM 33.8 °F 27.0 °F 28.4 °F 81% 29.83 in 0.5 mi South 8.1 mph - 0.00 in Snow Light Snow
2:46 PM 33.8 °F 30.8 °F 28.4 °F 81% 29.83 in 1.2 mi South 3.5 mph - 0.00 in Snow Light Snow
2:53 PM 33.1 °F - 28.9 °F 85% 29.83 in 1.2 mi Calm Calm - 0.00 in Snow Light Snow
3:49 PM 33.8 °F 30.8 °F 30.2 °F 87% 29.80 in 1.8 mi Variable 3.5 mph - 0.01 in Snow Light Snow
3:53 PM 34.0 °F - 30.0 °F 85% 29.81 in 2.5 mi Calm Calm - 0.01 in Snow Light Snow
4:01 PM 33.8 °F 30.8 °F 30.2 °F 87% 29.81 in 4.0 mi ENE 3.5 mph - 0.00 in Snow Light Snow
4:14 PM 33.8 °F 30.8 °F 30.2 °F 87% 29.80 in 4.0 mi East 3.5 mph - 0.00 in Snow Light Snow
4:28 PM 33.8 °F 30.8 °F 30.2 °F 87% 29.80 in 2.5 mi SE 3.5 mph - 0.00 in Snow Light Snow
4:31 PM 33.8 °F 30.8 °F 30.2 °F 87% 29.80 in 2.0 mi SSE 3.5 mph - 0.00 in Snow Light Snow
4:38 PM 33.8 °F 30.8 °F 30.2 °F 87% 29.80 in 1.5 mi SE 3.5 mph - 0.00 in Snow Light Snow
4:53 PM 33.1 °F 30.0 °F 30.0 °F 89% 29.79 in 3.0 mi SE 3.5 mph - 0.00 in Snow Light Snow
5:06 PM 33.8 °F - 30.2 °F 87% 29.80 in 4.0 mi Calm Calm - 0.00 in Snow Light Snow
5:16 PM 33.8 °F - 30.2 °F 87% 29.79 in 3.0 mi Calm Calm - 0.00 in Snow Light Snow
5:27 PM 33.8 °F - 30.2 °F 87% 29.80 in 2.0 mi Calm Calm - 0.00 in Snow Light Snow
5:36 PM 33.8 °F - 30.2 °F 87% 29.81 in 1.8 mi Calm Calm - 0.01 in Snow Light Snow
5:43 PM 33.8 °F 30.8 °F 30.2 °F 87% 29.81 in 3.0 mi ESE 3.5 mph - 0.01 in Snow Light Snow
5:53 PM 33.1 °F - 30.0 °F 89% 29.81 in 3.0 mi Calm Calm - 0.01 in Snow Light Snow
6:00 PM 33.8 °F 30.8 °F 30.2 °F 87% 29.80 in 2.5 mi NE 3.5 mph - 0.00 in Snow Light Snow
6:09 PM 33.8 °F - 30.2 °F 87% 29.80 in 3.0 mi Calm Calm - 0.00 in Snow Light Snow
6:43 PM 32.0 °F 26.4 °F 30.2 °F 93% 29.80 in 5.0 mi NE 5.8 mph - 0.00 in Snow Light Snow
6:53 PM 32.0 °F 27.5 °F 30.0 °F 92% 29.81 in 5.0 mi NE 4.6 mph - 0.00 in Snow Light Snow
7:13 PM 32.0 °F 27.5 °F 30.2 °F 93% 29.81 in 2.5 mi NE 4.6 mph - 0.00 in Snow Light Snow
7:22 PM 32.0 °F 28.7 °F 30.2 °F 93% 29.81 in 3.0 mi NNE 3.5 mph - 0.01 in Snow Light Snow
7:31 PM 32.0 °F 26.4 °F 30.2 °F 93% 29.82 in 2.0 mi NNE 5.8 mph - 0.01 in Snow Light Snow
7:44 PM 32.0 °F 27.5 °F 30.2 °F 93% 29.83 in 4.0 mi NNE 4.6 mph - 0.01 in Snow Light Snow
7:51 PM 32.0 °F 25.6 °F 30.2 °F 93% 29.83 in 5.0 mi NNE 6.9 mph - 0.01 in   Overcast
7:53 PM 32.0 °F 25.6 °F 30.0 °F 92% 29.83 in 6.0 mi NNE 6.9 mph - 0.01 in   Overcast
8:08 PM 32.0 °F 27.5 °F 30.2 °F 93% 29.84 in 6.0 mi NNE 4.6 mph - 0.00 in Snow Light Snow
8:49 PM 32.0 °F 26.4 °F 28.4 °F 87% 29.85 in 8.0 mi NNE 5.8 mph - 0.00 in Snow Light Snow
8:53 PM 32.0 °F 26.4 °F 30.0 °F 92% 29.86 in 8.0 mi NNE 5.8 mph - 0.00 in Snow Light Snow
9:53 PM 33.1 °F 30.0 °F 28.9 °F 85% 29.88 in 10.0 mi North 3.5 mph - 0.00 in   Overcast
10:53 PM 33.1 °F 28.7 °F 28.9 °F 85% 29.89 in 10.0 mi North 4.6 mph - N/A   Overcast
11:53 PM 33.1 °F 28.7 °F 28.9 °F 85% 29.91 in 10.0 mi NNW 4.6 mph - N/A   Overcast